Location: Bacharowice
(49.9333°N, 19.5833°E)
Time: 23:34:24
(UTC+00:00)

Cosmos 1782 Rocket - Pass Details

Date: 11 May 2021
Orbit: 606 x 633 km, 82.5° (Epoch: 21 June)

Event Time Altitude Azimuth Distance (km) Brightness Sun altitude
Rises 22:06:44 0° 352° (N) 2,936 8.6 -21.6°
Reaches altitude 10° 22:09:01 10° 356° (N) 2,020 7.4 -21.6°
Maximum altitude 22:13:28 63° 77° (ENE) 705 3.8 -21.7°
Enters shadow 22:14:13 53° 124° (ESE) 772 3.7 -21.7°
